Terminal Aerodrome Forecast
Issued by NWS Boston, MA

Home | Current Version | Previous Version | Text Only | Print | Product List | Glossary On
Versions: 1 2 3 4 5 6 7 8 9 10 11 12 13 14 15 16 17 18 19 20 21 22 23 24 25 26 27 28 29 30 31 32 33 34 35 36 37
000
FTUS41 KBOX 182100 AAA
TAFPVD
TAF AMD
KPVD 182100Z 1821/1918 35005KT P6SM FEW060 FEW100
     FM190100 36005KT P6SM BKN050
     FM190300 03009KT P6SM BKN035
     FM190800 02011KT P6SM SCT040
     FM191100 02012KT P6SM FEW250=

USA.gov is the U.S. government's official web portal to all federal, state and local government web resources and services.